TimeCDT,TemperatureF,Dew PointF,Humidity,Sea Level PressureIn,VisibilityMPH,Wind Direction,Wind SpeedMPH,Gust SpeedMPH,PrecipitationIn,Events,Conditions,WindDirDegrees,DateUTC
12:15 AM,53.6,50.9,91,30.01,10.0,NW,11.5,-,N/A,,Overcast,320,2013-05-23 05:15:00
12:35 AM,53.4,50.0,88,30.01,10.0,NW,10.4,16.1,N/A,,Overcast,320,2013-05-23 05:35:00
12:55 AM,53.2,50.4,90,30.01,10.0,NW,8.1,-,N/A,,Overcast,320,2013-05-23 05:55:00
1:15 AM,53.6,50.5,89,30.02,10.0,NW,10.4,-,N/A,,Overcast,320,2013-05-23 06:15:00
1:35 AM,53.6,50.7,90,30.02,10.0,NNW,8.1,-,N/A,,Overcast,330,2013-05-23 06:35:00
1:55 AM,53.6,50.9,91,30.03,10.0,NW,9.2,-,N/A,,Overcast,320,2013-05-23 06:55:00
2:15 AM,53.6,50.9,91,30.03,10.0,NNW,10.4,-,N/A,,Overcast,330,2013-05-23 07:15:00
2:35 AM,53.6,50.9,91,30.03,10.0,NW,9.2,-,N/A,,Overcast,310,2013-05-23 07:35:00
2:55 AM,53.6,51.3,92,30.03,10.0,NW,10.4,-,N/A,,Overcast,320,2013-05-23 07:55:00
3:15 AM,53.6,50.4,89,30.04,10.0,NNW,9.2,-,N/A,,Overcast,340,2013-05-23 08:15:00
3:35 AM,53.1,50.0,89,30.05,10.0,NNW,6.9,-,N/A,,Overcast,330,2013-05-23 08:35:00
3:55 AM,53.1,50.2,90,30.06,10.0,NNW,5.8,-,N/A,,Overcast,340,2013-05-23 08:55:00
4:15 AM,53.1,50.0,89,30.06,10.0,NNW,6.9,-,N/A,,Overcast,340,2013-05-23 09:15:00
4:35 AM,52.9,50.0,90,30.07,10.0,NNW,5.8,-,N/A,,Overcast,340,2013-05-23 09:35:00
4:55 AM,52.3,50.5,94,30.08,10.0,NNW,9.2,-,N/A,,Overcast,330,2013-05-23 09:55:00
5:15 AM,52.2,50.2,93,30.09,10.0,NW,11.5,-,N/A,,Overcast,320,2013-05-23 10:15:00
5:35 AM,52.2,50.0,92,30.10,10.0,NNW,8.1,-,N/A,,Overcast,340,2013-05-23 10:35:00
5:55 AM,52.2,50.0,92,30.11,10.0,North,6.9,-,N/A,,Overcast,350,2013-05-23 10:55:00
6:15 AM,51.4,50.4,96,30.12,10.0,North,6.9,-,N/A,,Overcast,350,2013-05-23 11:15:00
6:35 AM,51.4,50.4,96,30.13,7.0,North,6.9,-,N/A,,Overcast,360,2013-05-23 11:35:00
6:55 AM,51.8,50.4,95,30.14,7.0,North,5.8,-,N/A,,Overcast,360,2013-05-23 11:55:00
7:15 AM,51.8,50.4,95,30.15,10.0,North,6.9,-,N/A,,Overcast,360,2013-05-23 12:15:00
7:35 AM,52.2,50.5,94,30.15,10.0,North,6.9,-,N/A,,Overcast,360,2013-05-23 12:35:00
7:55 AM,52.7,50.9,94,30.16,10.0,North,6.9,-,N/A,,Overcast,10,2013-05-23 12:55:00
8:15 AM,53.1,50.9,92,30.17,10.0,NNE,5.8,-,N/A,,Overcast,30,2013-05-23 13:15:00
8:35 AM,52.9,50.5,92,30.18,10.0,NE,8.1,-,N/A,,Overcast,40,2013-05-23 13:35:00
8:55 AM,54.0,50.5,88,30.19,10.0,NNE,8.1,-,N/A,,Overcast,30,2013-05-23 13:55:00
9:15 AM,54.5,50.5,86,30.20,10.0,NE,6.9,-,N/A,,Overcast,40,2013-05-23 14:15:00
9:35 AM,55.4,50.4,83,30.21,10.0,NE,6.9,-,N/A,,Overcast,50,2013-05-23 14:35:00
9:55 AM,55.6,50.2,82,30.21,10.0,NE,6.9,-,N/A,,Overcast,40,2013-05-23 14:55:00
10:15 AM,57.0,50.4,78,30.21,10.0,NNE,10.4,-,N/A,,Overcast,20,2013-05-23 15:15:00
10:35 AM,58.1,50.4,75,30.20,10.0,NNE,11.5,18.4,N/A,,Mostly Cloudy,20,2013-05-23 15:35:00
10:55 AM,59.2,50.7,74,30.21,10.0,NE,11.5,-,N/A,,Scattered Clouds,40,2013-05-23 15:55:00
11:15 AM,59.5,50.2,71,30.21,10.0,NNE,10.4,-,N/A,,Scattered Clouds,30,2013-05-23 16:15:00
11:35 AM,62.1,50.4,65,30.21,10.0,NNE,11.5,16.1,N/A,,Scattered Clouds,30,2013-05-23 16:35:00
11:55 AM,64.0,51.1,63,30.21,10.0,NE,9.2,16.1,N/A,,Clear,40,2013-05-23 16:55:00
12:15 PM,64.8,50.4,60,30.20,10.0,ENE,13.8,19.6,N/A,,Clear,70,2013-05-23 17:15:00
12:35 PM,65.7,50.9,59,30.19,10.0,NE,11.5,18.4,N/A,,Clear,40,2013-05-23 17:35:00
12:55 PM,66.6,48.7,53,30.17,10.0,NE,15.0,25.3,N/A,,Clear,50,2013-05-23 17:55:00
1:15 PM,67.5,47.8,49,30.18,10.0,ENE,17.3,24.2,N/A,,Clear,70,2013-05-23 18:15:00
1:35 PM,68.7,47.7,47,30.19,10.0,NE,15.0,24.2,N/A,,Clear,50,2013-05-23 18:35:00
1:55 PM,69.8,47.7,45,30.19,10.0,ENE,6.9,19.6,N/A,,Clear,70,2013-05-23 18:55:00
2:15 PM,71.1,45.5,40,30.20,10.0,ENE,15.0,19.6,N/A,,Clear,70,2013-05-23 19:15:00
2:35 PM,70.7,45.1,40,30.20,10.0,NE,11.5,17.3,N/A,,Clear,40,2013-05-23 19:35:00
2:55 PM,72.0,45.0,38,30.19,10.0,East,12.7,21.9,N/A,,Clear,100,2013-05-23 19:55:00
3:15 PM,72.1,44.2,37,30.20,10.0,East,11.5,19.6,N/A,,Clear,90,2013-05-23 20:15:00
3:35 PM,72.0,43.0,35,30.20,10.0,ENE,15.0,20.7,N/A,,Clear,70,2013-05-23 20:35:00
3:55 PM,72.0,43.5,36,30.19,10.0,ENE,10.4,-,N/A,,Clear,60,2013-05-23 20:55:00
4:15 PM,72.7,44.1,36,30.19,10.0,East,11.5,16.1,N/A,,Clear,90,2013-05-23 21:15:00
4:35 PM,73.0,44.2,36,30.19,10.0,NE,6.9,17.3,N/A,,Clear,50,2013-05-23 21:35:00
4:55 PM,73.2,44.2,35,30.19,10.0,ENE,10.4,-,N/A,,Clear,70,2013-05-23 21:55:00
5:15 PM,72.3,43.2,35,30.19,10.0,ENE,8.1,-,N/A,,Clear,60,2013-05-23 22:15:00
5:35 PM,72.5,43.5,35,30.19,10.0,ENE,10.4,-,N/A,,Clear,70,2013-05-23 22:35:00
5:55 PM,72.3,42.6,34,30.19,10.0,ENE,10.4,-,N/A,,Clear,60,2013-05-23 22:55:00
6:15 PM,72.3,41.7,33,30.19,10.0,NE,8.1,-,N/A,,Clear,50,2013-05-23 23:15:00
6:35 PM,72.0,42.6,35,30.19,10.0,NE,5.8,-,N/A,,Clear,50,2013-05-23 23:35:00
6:55 PM,72.0,42.4,34,30.19,10.0,East,11.5,-,N/A,,Clear,80,2013-05-23 23:55:00
7:15 PM,71.2,43.0,36,30.19,5.0,East,9.2,-,N/A,,Haze,80,2013-05-24 00:15:00
7:35 PM,70.7,42.6,36,30.19,10.0,NE,9.2,-,N/A,,Clear,50,2013-05-24 00:35:00
7:55 PM,69.8,42.4,37,30.19,10.0,East,10.4,-,N/A,,Clear,80,2013-05-24 00:55:00
8:15 PM,69.1,42.1,38,30.19,10.0,ENE,8.1,-,N/A,,Clear,70,2013-05-24 01:15:00
8:35 PM,67.1,43.2,42,30.19,10.0,ENE,8.1,-,N/A,,Clear,70,2013-05-24 01:35:00
8:55 PM,65.7,43.5,45,30.19,10.0,ENE,5.8,-,N/A,,Clear,60,2013-05-24 01:55:00
9:15 PM,63.9,43.9,48,30.19,10.0,NE,5.8,-,N/A,,Clear,50,2013-05-24 02:15:00
9:35 PM,63.1,43.3,48,30.19,10.0,NE,6.9,-,N/A,,Clear,50,2013-05-24 02:35:00
9:55 PM,62.1,43.7,51,30.20,10.0,ENE,5.8,-,N/A,,Clear,60,2013-05-24 02:55:00
10:15 PM,60.8,43.7,53,30.21,10.0,ENE,4.6,-,N/A,,Clear,70,2013-05-24 03:15:00
10:35 PM,60.4,43.7,54,30.22,10.0,NE,6.9,-,N/A,,Clear,50,2013-05-24 03:35:00
10:55 PM,59.5,43.7,56,30.22,10.0,ENE,6.9,-,N/A,,Clear,60,2013-05-24 03:55:00
11:15 PM,59.5,43.7,56,30.23,10.0,ENE,5.8,-,N/A,,Clear,70,2013-05-24 04:15:00
11:35 PM,58.5,43.9,58,30.24,10.0,ENE,6.9,-,N/A,,Clear,70,2013-05-24 04:35:00
11:55 PM,57.9,44.1,60,30.25,10.0,ENE,4.6,-,N/A,,Clear,60,2013-05-24 04:55:00